Location: Namasale
(1.5000°N, 32.6167°E)
Time: 23:58:53
(UTC+00:00)

Vanguard 2 Rocket - Pass Details

Date: 27 April 2021
Orbit: 553 x 3326 km, 32.9° (Epoch: 10 May)

Event Time Altitude Azimuth Distance (km) Brightness Sun altitude
Rises 19:11:23 0° 285° (WNW) 6,465 11.9 -48.4°
Reaches altitude 10° 19:17:03 10° 276° (W) 4,986 11.1 -49.7°
Enters shadow 19:25:37 27° 240° (WSW) 2,988 9.5 -51.6°
